| time (UTC) | temp C | wind direction | speed KPH | gust KPH | rain 1hr cm | rain 24hr cm | rain mn cm | humidity % | barometer mb |
| 20260509135356 | 13 | 180 | 6.4 | 20.9 | 0.00 | 0.00 | 0.00 | 77 | 1007.8 |
| 20260509134856 | 13 | 163 | 11.3 | 20.9 | 0.00 | 0.00 | 0.00 | 77 | 1007.8 |
| 20260509134356 | 13 | 162 | 12.9 | 20.9 | 0.00 | 0.00 | 0.00 | 76 | 1007.9 |
| 20260509134120 | 12 | 166 | 11.3 | 16.1 | 0.00 | 0.00 | 0.00 | 78 | 1008.0 |
| 20260509133356 | 12 | 174 | 6.4 | 16.1 | 0.00 | 0.00 | 0.00 | 78 | 1007.9 |
| 20260509132855 | 12 | 183 | 6.4 | 22.5 | 0.00 | 0.00 | 0.00 | 78 | 1008.0 |
| 20260509132355 | 12 | 197 | 16.1 | 22.5 | 0.00 | 0.00 | 0.00 | 78 | 1008.0 |
| 20260509131856 | 12 | 208 | 8.0 | 14.5 | 0.00 | 0.00 | 0.00 | 79 | 1008.3 |
| 20260509131354 | 12 | 197 | 3.2 | 14.5 | 0.00 | 0.00 | 0.00 | 80 | 1008.4 |
| 20260509131117 | 11 | 190 | 6.4 | 14.5 | 0.00 | 0.00 | 0.00 | 80 | 1008.4 |
| 20260509130354 | 11 | 197 | 6.4 | 8.0 | 0.00 | 0.00 | 0.00 | 80 | 1008.5 |
| 20260509125854 | 11 | 141 | 4.8 | 9.7 | 0.00 | 0.00 | 0.00 | 80 | 1008.4 |
| 20260509125354 | 11 | 163 | 4.8 | 9.7 | 0.00 | 0.00 | 0.00 | 80 | 1008.6 |
| 20260509124853 | 11 | 180 | 3.2 | 0.0 | 0.00 | 0.00 | 0.00 | 81 | 1008.9 |
| 20260509123353 | 10 | 180 | 1.6 | 9.7 | 0.00 | 0.00 | 0.00 | 82 | 1008.6 |
| 20260509122853 | 10 | 199 | 3.2 | 6.4 | 0.00 | 0.03 | 0.00 | 82 | 1008.7 |
| 20260509122353 | 10 | 84 | 3.2 | 4.8 | 0.00 | 0.03 | 0.00 | 82 | 1008.5 |
| 20260509121852 | 10 | 164 | 4.8 | 4.8 | 0.00 | 0.05 | 0.00 | 81 | 1008.9 |
| 20260509121352 | 10 | 124 | 0.0 | 3.2 | 0.00 | 0.05 | 0.00 | 82 | 1008.9 |
| 20260509121115 | 9 | 151 | 3.2 | 3.2 | 0.00 | 0.08 | 0.00 | 82 | 1008.7 |
| 20260509120352 | 9 | 113 | 0.0 | 4.8 | 0.00 | 0.10 | 0.00 | 83 | 1008.7 |
| 20260509120122 | 8 | 141 | 3.2 | 4.8 | 0.00 | 0.13 | 0.00 | 84 | 1009.0 |
| 20260509115352 | 8 | 154 | 4.8 | 4.8 | 0.00 | 0.15 | 0.00 | 85 | 1008.9 |
| 20260509114852 | 8 | 161 | 3.2 | 4.8 | 0.00 | 0.15 | 0.00 | 85 | 1008.7 |
| 20260509114351 | 8 | 151 | 1.6 | 4.8 | 0.00 | 0.15 | 0.00 | 86 | 1008.6 |
| 20260509113851 | 7 | 133 | 3.2 | 4.8 | 0.00 | 0.18 | 0.00 | 86 | 1008.7 |
| 20260509113614 | 7 | 322 | 0.0 | 1.6 | 0.00 | 0.18 | 0.00 | 86 | 1008.9 |
| 20260509112850 | 7 | 37 | 0.0 | 3.2 | 0.00 | 0.18 | 0.00 | 86 | 1008.9 |
| 20260509112351 | 7 | 4 | 0.0 | 3.2 | 0.00 | 0.18 | 0.00 | 88 | 1009.0 |
| 20260509111850 | 6 | 4 | 1.6 | 3.2 | 0.00 | 0.18 | 0.00 | 89 | 1008.7 |
| 20260509111350 | 6 | 359 | 1.6 | 1.6 | 0.00 | 0.18 | 0.00 | 89 | 1009.0 |
| 20260509110850 | 6 | 235 | 0.0 | 3.2 | 0.00 | 0.18 | 0.00 | 88 | 1008.6 |
| 20260509110350 | 6 | 224 | 0.0 | 4.8 | 0.00 | 0.18 | 0.00 | 88 | 1008.7 |
| 20260509105850 | 6 | 205 | 0.0 | 6.4 | 0.00 | 0.18 | 0.00 | 88 | 1008.6 |
| 20260509105349 | 6 | 180 | 3.2 | 6.4 | 0.00 | 0.18 | 0.00 | 89 | 1008.5 |
| 20260509105158 | 6 | 181 | 4.8 | 4.8 | 0.00 | 0.18 | 0.00 | 89 | 1008.6 |
| 20260509105049 | 6 | 194 | 3.2 | 4.8 | 0.00 | 0.18 | 0.00 | 88 | 1008.7 |
| 20260509103849 | 6 | 191 | 3.2 | 3.2 | 0.00 | 0.20 | 0.00 | 88 | 1008.6 |
| 20260509103608 | 6 | 187 | 3.2 | 3.2 | 0.00 | 0.20 | 0.00 | 88 | 1008.7 |
| 20260509102848 | 5 | 194 | 3.2 | 0.0 | 0.00 | 0.20 | 0.00 | 87 | 1008.5 |
| 20260509101859 | 5 | 195 | 3.2 | 4.8 | 0.00 | 0.20 | 0.00 | 86 | 1008.5 |
| 20260509100917 | 5 | 188 | 1.6 | 4.8 | 0.00 | 0.20 | 0.00 | 85 | 1008.6 |
| 20260509100417 | 5 | 180 | 0.0 | 4.8 | 0.00 | 0.20 | 0.00 | 85 | 1008.5 |
| 20260509095918 | 5 | 195 | 3.2 | 6.4 | 0.00 | 0.20 | 0.00 | 85 | 1008.6 |
| 20260509095416 | 6 | 192 | 3.2 | 6.4 | 0.00 | 0.20 | 0.00 | 83 | 1008.7 |
| 20260509094916 | 6 | 192 | 3.2 | 6.4 | 0.00 | 0.20 | 0.00 | 83 | 1008.6 |
| 20260509094855 | 6 | 195 | 1.6 | 4.8 | 0.00 | 0.20 | 0.00 | 83 | 1008.6 |
| 20260509093916 | 6 | 183 | 3.2 | 4.8 | 0.00 | 0.20 | 0.00 | 83 | 1008.6 |
| 20260509093641 | 6 | 180 | 0.0 | 4.8 | 0.00 | 0.20 | 0.00 | 84 | 1008.5 |
| 20260509092916 | 6 | 202 | 0.0 | 4.8 | 0.00 | 0.20 | 0.00 | 83 | 1008.6 |
| 20260509092416 | 6 | 211 | 3.2 | 3.2 | 0.00 | 0.20 | 0.00 | 82 | 1008.5 |
| 20260509092142 | 6 | 193 | 3.2 | 4.8 | 0.00 | 0.20 | 0.00 | 81 | 1008.9 |
| 20260509091415 | 6 | 193 | 3.2 | 4.8 | 0.00 | 0.20 | 0.00 | 80 | 1008.5 |
| 20260509090915 | 6 | 181 | 3.2 | 4.8 | 0.00 | 0.20 | 0.00 | 79 | 1008.5 |
| 20260509090415 | 6 | 186 | 3.2 | 4.8 | 0.00 | 0.20 | 0.00 | 78 | 1008.6 |
| 20260509085914 | 6 | 186 | 3.2 | 4.8 | 0.00 | 0.20 | 0.00 | 76 | 1008.6 |
| 20260509085414 | 6 | 191 | 3.2 | 3.2 | 0.00 | 0.20 | 0.00 | 75 | 1008.7 |
| 20260509084914 | 6 | 187 | 0.0 | 3.2 | 0.00 | 0.20 | 0.00 | 73 | 1008.7 |
| 20260509084414 | 6 | 193 | 0.0 | 4.8 | 0.00 | 0.20 | 0.00 | 71 | 1008.9 |
| 20260509083913 | 6 | 202 | 0.0 | 6.4 | 0.00 | 0.20 | 0.00 | 70 | 1008.7 |
| 20260509083413 | 6 | 171 | 3.2 | 8.0 | 0.00 | 0.20 | 0.00 | 69 | 1009.0 |
| 20260509082913 | 7 | 178 | 4.8 | 9.7 | 0.00 | 0.20 | 0.00 | 67 | 1009.0 |
| 20260509082414 | 7 | 171 | 4.8 | 9.7 | 0.00 | 0.20 | 0.00 | 66 | 1009.0 |
| 20260509081914 | 7 | 182 | 6.4 | 9.7 | 0.00 | 0.20 | 0.00 | 66 | 1009.1 |
| 20260509081413 | 6 | 179 | 4.8 | 8.0 | 0.00 | 0.20 | 0.00 | 67 | 1009.0 |
| 20260509081130 | 6 | 181 | 4.8 | 6.4 | 0.00 | 0.20 | 0.00 | 67 | 1009.1 |
| 20260509080412 | 6 | 160 | 6.4 | 6.4 | 0.00 | 0.20 | 0.00 | 68 | 1009.0 |
| 20260509075913 | 6 | 164 | 3.2 | 4.8 | 0.00 | 0.20 | 0.00 | 70 | 1009.1 |
| 20260509075412 | 5 | 174 | 3.2 | 6.4 | 0.00 | 0.20 | 0.00 | 73 | 1009.4 |
| 20260509074912 | 5 | 190 | 3.2 | 6.4 | 0.00 | 0.20 | 0.00 | 75 | 1009.2 |
| 20260509074411 | 5 | 190 | 1.6 | 6.4 | 0.00 | 0.20 | 0.00 | 74 | 1009.4 |
| 20260509073911 | 6 | 200 | 3.2 | 6.4 | 0.00 | 0.20 | 0.00 | 69 | 1009.4 |
| 20260509073412 | 6 | 173 | 6.4 | 6.4 | 0.00 | 0.20 | 0.00 | 66 | 1009.4 |
| 20260509072911 | 6 | 178 | 4.8 | 6.4 | 0.00 | 0.20 | 0.00 | 66 | 1009.3 |
| 20260509072411 | 5 | 175 | 3.2 | 6.4 | 0.00 | 0.20 | 0.00 | 67 | 1009.3 |
| 20260509071911 | 5 | 167 | 4.8 | 6.4 | 0.00 | 0.20 | 0.00 | 69 | 1009.3 |
| 20260509071411 | 5 | 180 | 3.2 | 6.4 | 0.00 | 0.20 | 0.00 | 69 | 1009.5 |
| 20260509070910 | 5 | 174 | 4.8 | 6.4 | 0.00 | 0.20 | 0.00 | 70 | 1009.6 |
| 20260509070410 | 5 | 176 | 3.2 | 6.4 | 0.00 | 0.20 | 0.00 | 71 | 1009.6 |
| 20260509065910 | 4 | 179 | 3.2 | 4.8 | 0.00 | 0.20 | 0.00 | 72 | 1009.8 |
| 20260509065409 | 4 | 199 | 1.6 | 6.4 | 0.00 | 0.20 | 0.00 | 73 | 1009.8 |
| 20260509064909 | 5 | 174 | 3.2 | 6.4 | 0.00 | 0.20 | 0.00 | 72 | 1009.8 |
| 20260509064409 | 4 | 192 | 3.2 | 3.2 | 0.00 | 0.20 | 0.00 | 75 | 1009.8 |
| 20260509063909 | 4 | 197 | 0.0 | 6.4 | 0.00 | 0.20 | 0.00 | 73 | 1009.9 |
| 20260509063409 | 5 | 273 | 0.0 | 8.0 | 0.00 | 0.20 | 0.00 | 72 | 1009.9 |
| 20260509063350 | 5 | 185 | 4.8 | 8.0 | 0.00 | 0.20 | 0.00 | 70 | 1010.2 |
| 20260509062633 | 5 | 186 | 3.2 | 8.0 | 0.00 | 0.20 | 0.00 | 69 | 1010.1 |
| 20260509061908 | 4 | 193 | 1.6 | 6.4 | 0.00 | 0.20 | 0.00 | 73 | 1010.2 |
| 20260509061408 | 3 | 197 | 3.2 | 3.2 | 0.00 | 0.20 | 0.00 | 78 | 1010.3 |
| 20260509061129 | 3 | 176 | 0.0 | 3.2 | 0.00 | 0.20 | 0.00 | 82 | 1010.5 |
| 20260509060408 | 4 | 239 | 1.6 | 4.8 | 0.00 | 0.20 | 0.00 | 77 | 1010.4 |
| 20260509060126 | 4 | 195 | 1.6 | 6.4 | 0.00 | 0.20 | 0.00 | 74 | 1010.6 |
| 20260509055407 | 4 | 180 | 4.8 | 6.4 | 0.00 | 0.20 | 0.00 | 75 | 1010.6 |
| 20260509054906 | 4 | 195 | 3.2 | 4.8 | 0.00 | 0.20 | 0.00 | 75 | 1010.6 |
| 20260509054407 | 4 | 193 | 3.2 | 6.4 | 0.00 | 0.20 | 0.00 | 74 | 1010.7 |
| 20260509053907 | 4 | 195 | 3.2 | 6.4 | 0.00 | 0.20 | 0.00 | 75 | 1010.8 |
| 20260509053406 | 4 | 189 | 3.2 | 4.8 | 0.00 | 0.20 | 0.00 | 74 | 1010.7 |
| 20260509052906 | 4 | 211 | 3.2 | 4.8 | 0.00 | 0.20 | 0.00 | 76 | 1010.6 |
| 20260509052406 | 4 | 211 | 3.2 | 4.8 | 0.00 | 0.20 | 0.00 | 75 | 1010.8 |
| 20260509051905 | 4 | 196 | 0.0 | 4.8 | 0.00 | 0.20 | 0.00 | 73 | 1010.8 |
| 20260509051405 | 4 | 199 | 1.6 | 4.8 | 0.00 | 0.20 | 0.00 | 75 | 1011.0 |
| 20260509050905 | 4 | 196 | 1.6 | 4.8 | 0.00 | 0.20 | 0.00 | 75 | 1010.9 |
| 20260509050623 | 4 | 185 | 3.2 | 4.8 | 0.00 | 0.20 | 0.00 | 77 | 1011.0 |
| 20260509045905 | 4 | 192 | 3.2 | 4.8 | 0.00 | 0.20 | 0.00 | 80 | 1011.1 |
| 20260509045405 | 4 | 188 | 3.2 | 4.8 | 0.00 | 0.20 | 0.00 | 80 | 1011.2 |
| 20260509045136 | 4 | 184 | 3.2 | 4.8 | 0.00 | 0.20 | 0.00 | 80 | 1011.0 |
| 20260509044404 | 4 | 211 | 3.2 | 4.8 | 0.00 | 0.20 | 0.00 | 81 | 1011.2 |
| 20260509043904 | 4 | 157 | 0.0 | 4.8 | 0.00 | 0.20 | 0.00 | 82 | 1011.1 |
| 20260509043404 | 4 | 202 | 1.6 | 4.8 | 0.00 | 0.20 | 0.00 | 82 | 1011.4 |
| 20260509042903 | 4 | 177 | 3.2 | 4.8 | 0.00 | 0.20 | 0.00 | 82 | 1011.3 |
| 20260509042403 | 4 | 156 | 0.0 | 4.8 | 0.00 | 0.20 | 0.00 | 83 | 1011.2 |
| 20260509041903 | 4 | 232 | 0.0 | 4.8 | 0.00 | 0.20 | 0.00 | 84 | 1011.5 |
| 20260509041402 | 4 | 187 | 0.0 | 3.2 | 0.00 | 0.20 | 0.00 | 83 | 1011.4 |
| 20260509040902 | 4 | 203 | 1.6 | 3.2 | 0.00 | 0.20 | 0.00 | 80 | 1011.5 |
| 20260509040403 | 4 | 203 | 1.6 | 4.8 | 0.00 | 0.20 | 0.00 | 79 | 1011.5 |
| 20260509035902 | 4 | 194 | 1.6 | 4.8 | 0.00 | 0.20 | 0.20 | 77 | 1011.6 |
| 20260509035624 | 4 | 197 | 1.6 | 4.8 | 0.00 | 0.20 | 0.20 | 76 | 1011.6 |
| 20260509034901 | 5 | 183 | 0.0 | 3.2 | 0.00 | 0.20 | 0.20 | 77 | 1011.6 |
| 20260509034846 | 5 | 166 | 0.0 | 3.2 | 0.00 | 0.20 | 0.20 | 76 | 1011.8 |
| 20260509033901 | 5 | 213 | 3.2 | 3.2 | 0.00 | 0.20 | 0.20 | 77 | 1011.7 |
| 20260509033624 | 4 | 169 | 1.6 | 3.2 | 0.00 | 0.20 | 0.20 | 82 | 1011.5 |
| 20260509032901 | 4 | 244 | 1.6 | 3.2 | 0.00 | 0.20 | 0.20 | 82 | 1011.6 |
| 20260509032617 | 4 | 156 | 3.2 | 3.2 | 0.00 | 0.20 | 0.20 | 82 | 1011.7 |
| 20260509031901 | 4 | 187 | 0.0 | 3.2 | 0.00 | 0.20 | 0.20 | 81 | 1011.7 |
| 20260509031401 | 5 | 186 | 1.6 | 3.2 | 0.00 | 0.20 | 0.20 | 79 | 1011.6 |
| 20260509030900 | 5 | 183 | 3.2 | 3.2 | 0.00 | 0.20 | 0.20 | 78 | 1011.6 |
| 20260509030400 | 5 | 180 | 0.0 | 1.6 | 0.00 | 0.20 | 0.20 | 76 | 1011.6 |
| 20260509025900 | 5 | 130 | 0.0 | 3.2 | 0.00 | 0.20 | 0.20 | 76 | 1011.8 |
| 20260509025400 | 5 | 180 | 0.0 | 3.2 | 0.00 | 0.20 | 0.20 | 74 | 1011.7 |
| 20260509024859 | 5 | 148 | 0.0 | 3.2 | 0.00 | 0.23 | 0.20 | 73 | 1011.5 |
| 20260509024618 | 5 | 192 | 1.6 | 3.2 | 0.00 | 0.25 | 0.20 | 72 | 1011.8 |
| 20260509023859 | 6 | 214 | 0.0 | 3.2 | 0.00 | 0.28 | 0.20 | 70 | 1011.6 |
| 20260509023359 | 6 | 184 | 1.6 | 3.2 | 0.00 | 0.28 | 0.20 | 70 | 1011.6 |
| 20260509022858 | 6 | 213 | 3.2 | 3.2 | 0.00 | 0.28 | 0.20 | 71 | 1011.9 |
| 20260509022358 | 6 | 193 | 3.2 | 3.2 | 0.00 | 0.28 | 0.20 | 70 | 1011.5 |
| 20260509022106 | 6 | 185 | 1.6 | 3.2 | 0.00 | 0.28 | 0.20 | 68 | 1011.6 |
| 20260509021951 | 6 | 203 | 1.6 | 3.2 | 0.00 | 0.28 | 0.20 | 69 | 1011.5 |
| 20260509020857 | 6 | 197 | 1.6 | 3.2 | 0.00 | 0.28 | 0.20 | 66 | 1011.7 |
| 20260509020358 | 6 | 191 | 1.6 | 3.2 | 0.00 | 0.28 | 0.20 | 63 | 1011.5 |
| 20260509015857 | 6 | 202 | 0.0 | 1.6 | 0.00 | 0.28 | 0.20 | 61 | 1011.7 |
| 20260509015357 | 7 | 186 | 0.0 | 1.6 | 0.00 | 0.28 | 0.20 | 62 | 1011.6 |
| 20260509014857 | 7 | 179 | 0.0 | 3.2 | 0.00 | 0.28 | 0.20 | 63 | 1011.4 |
| 20260509014356 | 7 | 181 | 0.0 | 3.2 | 0.00 | 0.28 | 0.20 | 65 | 1011.6 |
| 20260509013857 | 7 | 165 | 1.6 | 3.2 | 0.00 | 0.28 | 0.20 | 65 | 1011.5 |
| 20260509013357 | 7 | 169 | 0.0 | 3.2 | 0.00 | 0.28 | 0.20 | 65 | 1011.7 |
| 20260509012856 | 7 | 135 | 0.0 | 3.2 | 0.00 | 0.28 | 0.20 | 66 | 1011.5 |
| 20260509012356 | 7 | 160 | 0.0 | 3.2 | 0.00 | 0.28 | 0.20 | 64 | 1011.6 |
| 20260509011855 | 8 | 166 | 3.2 | 3.2 | 0.00 | 0.28 | 0.20 | 63 | 1011.6 |
| 20260509011355 | 8 | 169 | 1.6 | 1.6 | 0.00 | 0.28 | 0.20 | 51 | 1011.4 |
| 20260509010855 | 8 | 322 | 0.0 | 0.0 | 0.00 | 0.28 | 0.20 | 46 | 1011.6 |
| 20260509010355 | 9 | 322 | 0.0 | 1.6 | 0.00 | 0.28 | 0.20 | 45 | 1011.5 |
| 20260509005855 | 9 | 6 | 0.0 | 1.6 | 0.00 | 0.28 | 0.20 | 47 | 1011.3 |
| 20260509005354 | 9 | 309 | 0.0 | 0.0 | 0.00 | 0.28 | 0.20 | 44 | 1011.4 |
| 20260509004854 | 9 | 209 | 0.0 | 0.0 | 0.00 | 0.28 | 0.20 | 44 | 1011.4 |
| 20260509004354 | 10 | 209 | 0.0 | 0.0 | 0.00 | 0.28 | 0.20 | 44 | 1011.3 |
| 20260509004123 | 10 | 209 | 0.0 | 1.6 | 0.00 | 0.28 | 0.20 | 42 | 1011.2 |
| 20260509003353 | 10 | 287 | 0.0 | 3.2 | 0.00 | 0.28 | 0.20 | 41 | 1011.1 |
| 20260509002854 | 10 | 37 | 0.0 | 3.2 | 0.00 | 0.28 | 0.20 | 43 | 1010.8 |
| 20260509002354 | 10 | 8 | 3.2 | 3.2 | 0.00 | 0.28 | 0.20 | 42 | 1011.1 |
| 20260509002119 | 10 | 347 | 0.0 | 3.2 | 0.00 | 0.28 | 0.20 | 42 | 1010.7 |
| 20260509001352 | 11 | 37 | 0.0 | 6.4 | 0.00 | 0.28 | 0.20 | 43 | 1010.8 |
| 20260509000853 | 11 | 200 | 0.0 | 6.4 | 0.00 | 0.28 | 0.20 | 42 | 1010.9 |
| 20260509000355 | 11 | 180 | 3.2 | 6.4 | 0.00 | 0.28 | 0.20 | 40 | 1010.9 |
| 20260509000118 | 11 | 269 | 0.0 | 6.4 | 0.00 | 0.28 | 0.20 | 42 | 1011.0 |
| 20260508235614 | 11 | 130 | 0.0 | 6.4 | 0.00 | 0.28 | 0.20 | 39 | 1010.9 |
| 20260508235116 | 12 | 168 | 3.2 | 9.7 | 0.00 | 0.28 | 0.20 | 37 | 1010.7 |
| 20260508234351 | 12 | 232 | 3.2 | 11.3 | 0.00 | 0.28 | 0.20 | 38 | 1010.7 |
| 20260508233851 | 12 | 229 | 3.2 | 11.3 | 0.00 | 0.28 | 0.20 | 37 | 1010.9 |
| 20260508233610 | 12 | 195 | 4.8 | 11.3 | 0.00 | 0.28 | 0.20 | 36 | 1010.9 |
| 20260508232852 | 12 | 193 | 3.2 | 11.3 | 0.00 | 0.28 | 0.20 | 36 | 1010.8 |
| 20260508232350 | 12 | 202 | 3.2 | 11.3 | 0.00 | 0.28 | 0.20 | 34 | 1010.8 |
| 20260508231850 | 12 | 180 | 3.2 | 6.4 | 0.00 | 0.28 | 0.20 | 38 | 1010.6 |
| 20260508231351 | 12 | 283 | 1.6 | 12.9 | 0.00 | 0.28 | 0.20 | 36 | 1010.8 |
| 20260508230850 | 12 | 208 | 4.8 | 12.9 | 0.00 | 0.28 | 0.20 | 37 | 1010.7 |
| 20260508230350 | 12 | 88 | 4.8 | 9.7 | 0.00 | 0.28 | 0.20 | 38 | 1010.8 |
| 20260508225850 | 12 | 234 | 3.2 | 9.7 | 0.00 | 0.28 | 0.20 | 36 | 1010.7 |
| 20260508225349 | 12 | 170 | 1.6 | 11.3 | 0.00 | 0.28 | 0.20 | 35 | 1010.7 |
| 20260508224849 | 13 | 245 | 3.2 | 11.3 | 0.00 | 0.28 | 0.20 | 33 | 1010.7 |
| 20260508224349 | 13 | 286 | 4.8 | 14.5 | 0.00 | 0.28 | 0.20 | 35 | 1010.8 |
| 20260508223848 | 13 | 337 | 6.4 | 14.5 | 0.00 | 0.28 | 0.20 | 36 | 1010.5 |
| 20260508223349 | 13 | 306 | 0.0 | 14.5 | 0.00 | 0.28 | 0.20 | 35 | 1010.9 |
| 20260508222849 | 13 | 247 | 4.8 | 14.5 | 0.00 | 0.28 | 0.20 | 33 | 1010.8 |
| 20260508222834 | 13 | 188 | 6.4 | 14.5 | 0.00 | 0.28 | 0.20 | 34 | 1010.8 |
| 20260508221848 | 13 | 222 | 3.2 | 9.7 | 0.00 | 0.28 | 0.20 | 35 | 1010.7 |
| 20260508221348 | 13 | 308 | 6.4 | 11.3 | 0.00 | 0.28 | 0.20 | 35 | 1010.7 |
| 20260508220847 | 13 | 132 | 3.2 | 14.5 | 0.00 | 0.28 | 0.20 | 32 | 1010.6 |
| 20260508220347 | 13 | 229 | 6.4 | 17.7 | 0.00 | 0.28 | 0.20 | 33 | 1010.7 |
| 20260508215847 | 13 | 231 | 4.8 | 17.7 | 0.00 | 0.28 | 0.20 | 33 | 1010.7 |
| 20260508215347 | 13 | 248 | 6.4 | 20.9 | 0.00 | 0.28 | 0.20 | 31 | 1010.8 |
| 20260508214847 | 13 | 200 | 9.7 | 20.9 | 0.00 | 0.28 | 0.20 | 32 | 1010.8 |
| 20260508214347 | 13 | 312 | 8.0 | 20.9 | 0.00 | 0.28 | 0.20 | 32 | 1010.8 |
| 20260508213846 | 13 | 210 | 4.8 | 0.0 | 0.00 | 0.28 | 0.20 | 30 | 1010.6 |
| 20260508212146 | 13 | 246 | 9.7 | 19.3 | 0.00 | 0.28 | 0.20 | 32 | 1010.6 |
| 20260508211646 | 13 | 279 | 8.0 | 16.1 | 0.00 | 0.28 | 0.20 | 34 | 1010.7 |
| 20260508211145 | 13 | 233 | 8.0 | 16.1 | 0.00 | 0.28 | 0.20 | 35 | 1010.9 |
| 20260508210645 | 13 | 223 | 6.4 | 12.9 | 0.00 | 0.28 | 0.20 | 33 | 1010.7 |
| 20260508210145 | 13 | 285 | 9.7 | 12.9 | 0.00 | 0.28 | 0.20 | 33 | 1010.7 |
| 20260508205645 | 13 | 284 | 1.6 | 16.1 | 0.00 | 0.28 | 0.20 | 36 | 1010.8 |
| 20260508205144 | 13 | 64 | 3.2 | 19.3 | 0.00 | 0.28 | 0.20 | 38 | 1010.8 |
| 20260508204645 | 13 | 189 | 8.0 | 19.3 | 0.00 | 0.28 | 0.20 | 38 | 1010.9 |
| 20260508204621 | 13 | 176 | 3.2 | 11.3 | 0.00 | 0.28 | 0.20 | 41 | 1011.0 |
| 20260508203644 | 13 | 211 | 6.4 | 20.9 | 0.00 | 0.28 | 0.20 | 36 | 1010.9 |
| 20260508203144 | 13 | 208 | 8.0 | 20.9 | 0.00 | 0.28 | 0.20 | 37 | 1011.0 |
| 20260508203121 | 13 | 230 | 4.8 | 25.7 | 0.00 | 0.28 | 0.20 | 37 | 1011.1 |
| 20260508202143 | 13 | 201 | 8.0 | 25.7 | 0.00 | 0.28 | 0.20 | 38 | 1011.2 |
| 20260508201908 | 13 | 259 | 4.8 | 25.7 | 0.00 | 0.28 | 0.20 | 39 | 1011.3 |
| 20260508201143 | 13 | 215 | 1.6 | 12.9 | 0.00 | 0.28 | 0.20 | 39 | 1011.2 |
| 20260508200642 | 13 | 291 | 6.4 | 16.1 | 0.00 | 0.28 | 0.20 | 41 | 1011.0 |
| 20260508200142 | 12 | 357 | 4.8 | 16.1 | 0.00 | 0.28 | 0.20 | 41 | 1011.0 |
| 20260508195642 | 12 | 272 | 6.4 | 9.7 | 0.00 | 0.28 | 0.20 | 42 | 1011.2 |
| 20260508195142 | 12 | 68 | 6.4 | 9.7 | 0.00 | 0.28 | 0.20 | 42 | 1011.5 |
| 20260508194642 | 11 | 150 | 3.2 | 11.3 | 0.00 | 0.28 | 0.20 | 41 | 1011.5 |
| 20260508194142 | 12 | 301 | 4.8 | 12.9 | 0.00 | 0.28 | 0.20 | 42 | 1011.7 |
| 20260508193847 | 12 | 206 | 6.4 | 14.5 | 0.00 | 0.28 | 0.20 | 44 | 1011.5 |
| 20260508193734 | 12 | 225 | 6.4 | 12.9 | 0.00 | 0.28 | 0.20 | 43 | 1011.6 |
| 20260508192641 | 12 | 218 | 6.4 | 16.1 | 0.00 | 0.28 | 0.20 | 40 | 1011.9 |
| 20260508192403 | 12 | 308 | 8.0 | 16.1 | 0.00 | 0.28 | 0.20 | 40 | 1011.9 |
| 20260508191641 | 12 | 308 | 11.3 | 22.5 | 0.00 | 0.28 | 0.20 | 43 | 1011.9 |
| 20260508191141 | 12 | 221 | 8.0 | 22.5 | 0.00 | 0.28 | 0.20 | 41 | 1011.8 |
| 20260508190640 | 12 | 191 | 14.5 | 19.3 | 0.00 | 0.28 | 0.20 | 41 | 1012.0 |
| 20260508190401 | 12 | 203 | 9.7 | 16.1 | 0.00 | 0.28 | 0.20 | 40 | 1012.0 |
| 20260508185640 | 11 | 297 | 14.5 | 16.1 | 0.00 | 0.28 | 0.20 | 42 | 1012.0 |
| 20260508185140 | 12 | 303 | 4.8 | 16.1 | 0.00 | 0.28 | 0.20 | 43 | 1012.1 |
| 20260508184640 | 12 | 262 | 1.6 | 17.7 | 0.00 | 0.28 | 0.20 | 42 | 1012.0 |
| 20260508184139 | 11 | 32 | 1.6 | 17.7 | 0.00 | 0.28 | 0.20 | 44 | 1011.9 |
| 20260508183639 | 12 | 259 | 14.5 | 17.7 | 0.00 | 0.28 | 0.20 | 44 | 1012.0 |
| 20260508183139 | 11 | 265 | 4.8 | 16.1 | 0.00 | 0.28 | 0.20 | 43 | 1012.0 |
| 20260508182639 | 11 | 305 | 12.9 | 17.7 | 0.00 | 0.28 | 0.20 | 43 | 1011.9 |
| 20260508182139 | 11 | 355 | 8.0 | 17.7 | 0.00 | 0.28 | 0.20 | 44 | 1012.2 |
| 20260508181638 | 12 | 323 | 12.9 | 17.7 | 0.00 | 0.28 | 0.20 | 43 | 1012.1 |
| 20260508181138 | 11 | 331 | 6.4 | 19.3 | 0.00 | 0.28 | 0.20 | 40 | 1012.2 |
| 20260508180638 | 12 | 287 | 9.7 | 19.3 | 0.00 | 0.28 | 0.20 | 42 | 1012.3 |
| 20260508180138 | 11 | 251 | 4.8 | 17.7 | 0.00 | 0.28 | 0.20 | 46 | 1012.3 |
| 20260508175638 | 11 | 213 | 9.7 | 19.3 | 0.00 | 0.28 | 0.20 | 46 | 1012.6 |
| 20260508175137 | 11 | 223 | 8.0 | 19.3 | 0.00 | 0.28 | 0.20 | 45 | 1012.3 |
| 20260508174859 | 11 | 337 | 8.0 | 19.3 | 0.00 | 0.28 | 0.20 | 43 | 1012.4 |
| 20260508174136 | 11 | 207 | 14.5 | 19.3 | 0.00 | 0.28 | 0.20 | 46 | 1012.4 |
| 20260508173636 | 11 | 282 | 9.7 | 27.4 | 0.00 | 0.28 | 0.20 | 45 | 1012.6 |
| 20260508173405 | 11 | 184 | 4.8 | 27.4 | 0.00 | 0.28 | 0.20 | 45 | 1012.5 |
| 20260508172636 | 11 | 221 | 9.7 | 17.7 | 0.00 | 0.28 | 0.20 | 50 | 1012.6 |
| 20260508172136 | 10 | 264 | 3.2 | 17.7 | 0.00 | 0.28 | 0.20 | 46 | 1012.6 |
| 20260508171635 | 10 | 299 | 9.7 | 16.1 | 0.00 | 0.28 | 0.20 | 53 | 1012.8 |
| 20260508171136 | 10 | 349 | 9.7 | 17.7 | 0.00 | 0.28 | 0.20 | 50 | 1012.8 |
| 20260508170636 | 10 | 269 | 3.2 | 22.5 | 0.00 | 0.28 | 0.20 | 49 | 1013.0 |
| 20260508170136 | 10 | 184 | 3.2 | 22.5 | 0.00 | 0.28 | 0.20 | 49 | 1012.8 |
| 20260508165635 | 10 | 321 | 4.8 | 14.5 | 0.00 | 0.28 | 0.20 | 54 | 1012.9 |
| 20260508165135 | 10 | 336 | 11.3 | 19.3 | 0.00 | 0.28 | 0.20 | 57 | 1013.0 |
| 20260508164859 | 10 | 55 | 4.8 | 19.3 | 0.00 | 0.28 | 0.20 | 59 | 1013.1 |
| 20260508164134 | 9 | 161 | 3.2 | 19.3 | 0.00 | 0.28 | 0.20 | 58 | 1013.0 |
| 20260508163634 | 9 | 7 | 11.3 | 20.9 | 0.00 | 0.28 | 0.20 | 60 | 1013.3 |
| 20260508163353 | 10 | 222 | 4.8 | 20.9 | 0.00 | 0.28 | 0.20 | 58 | 1013.3 |
| 20260508162852 | 9 | 190 | 11.3 | 14.5 | 0.00 | 0.28 | 0.20 | 63 | 1013.3 |
| 20260508162133 | 10 | 333 | 3.2 | 14.5 | 0.00 | 0.28 | 0.20 | 58 | 1013.1 |
| 20260508161634 | 8 | 236 | 9.7 | 14.5 | 0.00 | 0.28 | 0.20 | 62 | 1013.3 |
| 20260508161402 | 9 | 330 | 6.4 | 17.7 | 0.00 | 0.28 | 0.20 | 67 | 1013.2 |
| 20260508160851 | 8 | 215 | 4.8 | 17.7 | 0.00 | 0.28 | 0.20 | 66 | 1013.1 |
| 20260508160133 | 9 | 196 | 17.7 | 17.7 | 0.00 | 0.28 | 0.20 | 64 | 1013.3 |
| 20260508155632 | 8 | 269 | 3.2 | 17.7 | 0.00 | 0.28 | 0.20 | 66 | 1013.5 |
| 20260508155132 | 8 | 219 | 4.8 | 17.7 | 0.00 | 0.28 | 0.20 | 68 | 1013.7 |
| 20260508154632 | 8 | 300 | 3.2 | 17.7 | 0.00 | 0.28 | 0.20 | 67 | 1013.5 |
| 20260508154132 | 8 | 191 | 3.2 | 19.3 | 0.00 | 0.28 | 0.20 | 68 | 1013.6 |
| 20260508153632 | 8 | 221 | 9.7 | 19.3 | 0.00 | 0.28 | 0.20 | 69 | 1013.6 |
| 20260508153132 | 8 | 203 | 9.7 | 17.7 | 0.00 | 0.28 | 0.20 | 70 | 1013.7 |
| 20260508152632 | 8 | 263 | 6.4 | 17.7 | 0.00 | 0.28 | 0.20 | 73 | 1013.6 |
| 20260508152131 | 8 | 277 | 6.4 | 19.3 | 0.00 | 0.28 | 0.20 | 74 | 1013.6 |
| 20260508151631 | 7 | 200 | 11.3 | 19.3 | 0.00 | 0.28 | 0.20 | 74 | 1013.5 |
| 20260508151131 | 7 | 209 | 11.3 | 19.3 | 0.00 | 0.28 | 0.20 | 77 | 1013.5 |
| 20260508150630 | 7 | 245 | 3.2 | 17.7 | 0.00 | 0.28 | 0.20 | 76 | 1013.5 |
| 20260508150131 | 7 | 182 | 12.9 | 17.7 | 0.00 | 0.28 | 0.20 | 79 | 1013.5 |
| 20260508145631 | 7 | 201 | 6.4 | 17.7 | 0.00 | 0.28 | 0.20 | 78 | 1013.4 |
| 20260508145130 | 7 | 181 | 8.0 | 14.5 | 0.00 | 0.28 | 0.20 | 79 | 1013.5 |
| 20260508144850 | 6 | 206 | 6.4 | 14.5 | 0.00 | 0.28 | 0.20 | 79 | 1013.4 |
| 20260508144129 | 6 | 241 | 8.0 | 14.5 | 0.00 | 0.28 | 0.20 | 83 | 1013.5 |
| 20260508143629 | 6 | 212 | 9.7 | 14.5 | 0.00 | 0.28 | 0.20 | 85 | 1013.5 |
| 20260508143129 | 6 | 214 | 6.4 | 9.7 | 0.00 | 0.28 | 0.20 | 84 | 1013.5 |
| 20260508142854 | 5 | 317 | 4.8 | 8.0 | 0.00 | 0.28 | 0.20 | 84 | 1013.5 |
| 20260508142129 | 6 | 191 | 3.2 | 4.8 | 0.00 | 0.28 | 0.20 | 84 | 1013.4 |
| 20260508141628 | 5 | 331 | 1.6 | 6.4 | 0.00 | 0.28 | 0.20 | 87 | 1013.3 |
| 20260508141129 | 5 | 225 | 0.0 | 6.4 | 0.00 | 0.28 | 0.20 | 84 | 1013.5 |
| 20260508140628 | 5 | 268 | 4.8 | 6.4 | 0.00 | 0.28 | 0.20 | 87 | 1013.7 |
| 20260508140128 | 5 | 180 | 3.2 | 6.4 | 0.00 | 0.28 | 0.20 | 87 | 1013.4 |
| 20260508135848 | 5 | 241 | 0.0 | 6.4 | 0.00 | 0.28 | 0.20 | 88 | 1013.5 |